TimeCDT,TemperatureF,Dew PointF,Humidity,Sea Level PressureIn,VisibilityMPH,Wind Direction,Wind SpeedMPH,Gust SpeedMPH,PrecipitationIn,Events,Conditions,WindDirDegrees,DateUTC
12:15 AM,41.0,37.4,87,29.89,0.2,Calm,Calm,-,N/A,Fog,Fog,0,2013-03-31 05:15:00
12:35 AM,42.8,37.4,81,29.89,0.2,Calm,Calm,-,N/A,Fog,Fog,0,2013-03-31 05:35:00
12:55 AM,41.0,37.4,87,29.89,0.2,West,4.6,-,N/A,Fog,Fog,280,2013-03-31 05:55:00
1:15 AM,41.0,37.4,87,29.89,0.2,West,5.8,-,N/A,Fog,Fog,280,2013-03-31 06:15:00
1:35 AM,39.2,37.4,93,29.89,0.2,WNW,4.6,-,N/A,Fog,Fog,300,2013-03-31 06:35:00
1:55 AM,39.2,35.6,87,29.89,0.2,NW,5.8,-,N/A,Fog,Fog,310,2013-03-31 06:55:00
2:15 AM,41.0,37.4,87,29.90,0.2,NW,5.8,-,N/A,Fog,Fog,310,2013-03-31 07:15:00
2:35 AM,41.0,37.4,87,29.89,0.2,NW,4.6,-,N/A,Rain,Light Rain,320,2013-03-31 07:35:00
2:55 AM,39.2,35.6,87,29.89,0.2,NW,6.9,-,N/A,Rain,Light Rain,310,2013-03-31 07:55:00
3:15 AM,39.2,35.6,87,29.89,0.2,WNW,5.8,-,N/A,Fog,Fog,300,2013-03-31 08:15:00
3:35 AM,37.4,33.8,87,29.89,0.2,WNW,3.5,-,N/A,Fog,Fog,300,2013-03-31 08:35:00
3:55 AM,37.4,33.8,87,29.88,0.2,WNW,4.6,-,N/A,Fog,Fog,290,2013-03-31 08:55:00
4:15 AM,35.6,32.0,87,29.88,0.2,West,4.6,-,N/A,Fog,Fog,280,2013-03-31 09:15:00
4:35 AM,35.6,30.2,81,29.89,0.2,West,8.1,-,N/A,Fog,Fog,280,2013-03-31 09:35:00
4:55 AM,35.6,30.2,81,29.89,0.2,West,6.9,-,N/A,Fog,Fog,270,2013-03-31 09:55:00
5:15 AM,33.8,30.2,87,29.89,0.2,West,5.8,-,N/A,Fog,Fog,270,2013-03-31 10:15:00
5:35 AM,33.8,30.2,87,29.88,0.2,West,6.9,-,N/A,Fog,Fog,280,2013-03-31 10:35:00
5:55 AM,35.6,30.2,81,29.90,0.2,WNW,6.9,-,N/A,Fog,Fog,300,2013-03-31 10:55:00
6:15 AM,35.6,30.2,81,29.89,0.2,WNW,8.1,-,N/A,Fog,Fog,300,2013-03-31 11:15:00
6:35 AM,35.6,32.0,87,29.90,0.2,WNW,8.1,-,N/A,Fog,Fog,290,2013-03-31 11:35:00
6:55 AM,35.6,30.2,81,29.91,0.2,WNW,6.9,-,N/A,Fog,Fog,300,2013-03-31 11:55:00
7:15 AM,35.6,30.2,81,29.91,0.2,West,5.8,-,N/A,Fog,Fog,280,2013-03-31 12:15:00
7:35 AM,35.6,32.0,87,29.91,0.2,WNW,5.8,-,N/A,Fog,Fog,290,2013-03-31 12:35:00
7:55 AM,37.4,33.8,87,29.90,0.2,West,4.6,-,N/A,Fog,Fog,280,2013-03-31 12:55:00
8:15 AM,37.4,33.8,87,29.90,0.2,West,6.9,-,0.01,Fog,Fog,280,2013-03-31 13:15:00
8:35 AM,37.4,35.6,93,29.90,0.2,West,9.2,-,0.01,Fog,Fog,280,2013-03-31 13:35:00
8:55 AM,39.2,35.6,87,29.90,0.2,West,10.4,-,0.01,Fog,Fog,280,2013-03-31 13:55:00
9:15 AM,39.2,35.6,87,29.90,0.2,WNW,12.7,-,N/A,Fog,Fog,300,2013-03-31 14:15:00
9:35 AM,41.0,37.4,87,29.90,0.2,West,12.7,-,N/A,Fog,Fog,280,2013-03-31 14:35:00
9:55 AM,42.8,37.4,81,29.90,0.8,West,13.8,-,N/A,,Overcast,280,2013-03-31 14:55:00
10:15 AM,44.6,39.2,81,29.91,4.0,WNW,12.7,17.3,N/A,,Mostly Cloudy,300,2013-03-31 15:15:00
10:35 AM,44.6,39.2,81,29.92,7.0,WNW,11.5,-,N/A,,Scattered Clouds,300,2013-03-31 15:35:00
10:55 AM,44.6,41.0,87,29.92,10.0,NNW,12.7,-,N/A,,Scattered Clouds,330,2013-03-31 15:55:00
11:15 AM,46.4,42.8,87,29.92,10.0,NW,10.4,-,N/A,,Mostly Cloudy,320,2013-03-31 16:15:00
11:35 AM,46.4,41.0,81,29.91,10.0,NW,9.2,-,N/A,,Scattered Clouds,320,2013-03-31 16:35:00
11:55 AM,48.2,39.2,71,29.91,10.0,NW,13.8,19.6,N/A,,Clear,320,2013-03-31 16:55:00
12:15 PM,48.2,39.2,71,29.91,10.0,NW,18.4,23.0,N/A,,Scattered Clouds,310,2013-03-31 17:15:00
12:35 PM,51.8,37.4,58,29.91,10.0,WNW,21.9,31.1,N/A,,Scattered Clouds,300,2013-03-31 17:35:00
12:55 PM,53.6,33.8,47,29.91,10.0,WNW,19.6,25.3,N/A,,Scattered Clouds,290,2013-03-31 17:55:00
1:15 PM,53.6,26.6,35,29.91,10.0,NW,19.6,31.1,N/A,,Scattered Clouds,310,2013-03-31 18:15:00
1:35 PM,55.4,21.2,26,29.90,10.0,NW,23.0,29.9,N/A,,Clear,310,2013-03-31 18:35:00
1:55 PM,55.4,12.2,18,29.91,10.0,NW,21.9,32.2,N/A,,Clear,320,2013-03-31 18:55:00
2:15 PM,53.6,10.4,18,29.91,10.0,NW,24.2,34.5,N/A,,Clear,310,2013-03-31 19:15:00
2:35 PM,53.6,15.8,22,29.92,10.0,NW,19.6,31.1,N/A,,Clear,320,2013-03-31 19:35:00
2:55 PM,53.6,21.2,28,29.92,10.0,NW,17.3,27.6,N/A,,Clear,320,2013-03-31 19:55:00
3:15 PM,53.6,24.8,33,29.92,10.0,NW,19.6,24.2,N/A,,Clear,310,2013-03-31 20:15:00
3:35 PM,53.6,24.8,33,29.92,10.0,NW,19.6,25.3,N/A,,Clear,310,2013-03-31 20:35:00
3:55 PM,53.6,24.8,33,29.93,10.0,NW,17.3,23.0,N/A,,Scattered Clouds,310,2013-03-31 20:55:00
4:15 PM,51.8,23.0,33,29.93,10.0,NW,19.6,25.3,N/A,,Scattered Clouds,310,2013-03-31 21:15:00
4:35 PM,51.8,23.0,33,29.93,10.0,WNW,18.4,24.2,N/A,,Clear,300,2013-03-31 21:35:00
4:55 PM,51.8,23.0,33,29.93,10.0,WNW,18.4,23.0,N/A,,Clear,300,2013-03-31 21:55:00
5:15 PM,50.0,21.2,32,29.94,10.0,WNW,18.4,-,N/A,,Clear,300,2013-03-31 22:15:00
5:35 PM,48.2,24.8,40,29.95,10.0,NW,15.0,23.0,N/A,,Clear,310,2013-03-31 22:35:00
5:55 PM,46.4,26.6,46,29.95,10.0,NNW,15.0,21.9,N/A,,Clear,330,2013-03-31 22:55:00
6:15 PM,46.4,24.8,43,29.96,10.0,NNW,13.8,17.3,N/A,,Clear,340,2013-03-31 23:15:00
6:35 PM,46.4,26.6,46,29.97,10.0,NNW,13.8,20.7,N/A,,Clear,330,2013-03-31 23:35:00
6:55 PM,44.6,26.6,49,29.97,10.0,NNW,13.8,-,N/A,,Mostly Cloudy,330,2013-03-31 23:55:00
7:15 PM,44.6,24.8,46,29.98,10.0,NNW,12.7,-,N/A,,Mostly Cloudy,330,2013-04-01 00:15:00
7:35 PM,42.8,24.8,49,29.98,10.0,NNW,15.0,19.6,N/A,,Overcast,340,2013-04-01 00:35:00
7:55 PM,42.8,24.8,49,29.98,10.0,NNW,13.8,20.7,N/A,,Overcast,340,2013-04-01 00:55:00
8:15 PM,41.0,24.8,53,29.98,10.0,NNW,18.4,21.9,N/A,,Overcast,340,2013-04-01 01:15:00
8:35 PM,41.0,24.8,53,30.00,10.0,NW,11.5,17.3,N/A,,Overcast,320,2013-04-01 01:35:00
8:55 PM,41.0,26.6,57,30.01,10.0,NNW,12.7,-,N/A,,Overcast,330,2013-04-01 01:55:00
9:15 PM,41.0,24.8,53,30.02,10.0,NNW,12.7,-,N/A,,Overcast,330,2013-04-01 02:15:00
9:35 PM,39.2,26.6,61,30.03,10.0,NNW,18.4,21.9,N/A,,Overcast,340,2013-04-01 02:35:00
10:15 PM,37.4,28.4,70,30.06,10.0,NW,11.5,19.6,N/A,Rain,Light Rain,320,2013-04-01 03:15:00
10:35 PM,35.6,26.6,70,30.07,10.0,NW,11.5,-,N/A,,Overcast,310,2013-04-01 03:35:00
10:55 PM,37.4,24.8,60,30.06,10.0,NNW,16.1,21.9,N/A,,Overcast,340,2013-04-01 03:55:00
11:15 PM,35.6,19.4,52,30.07,10.0,NNW,16.1,21.9,N/A,,Mostly Cloudy,330,2013-04-01 04:15:00
11:35 PM,35.6,19.4,52,30.08,10.0,NNW,15.0,-,N/A,,Mostly Cloudy,330,2013-04-01 04:35:00
11:55 PM,35.6,17.6,48,30.08,10.0,NNW,16.1,23.0,N/A,,Overcast,330,2013-04-01 04:55:00